Year,Month,Day,Hour,Minute,Value (Times are PST for temperature in C)
2013,05,23,00,00,8.00
2013,05,23,00,01,7.90
2013,05,23,00,02,7.90
2013,05,23,00,03,7.90
2013,05,23,00,04,7.90
2013,05,23,00,05,7.90
2013,05,23,00,06,7.90
2013,05,23,00,07,7.90
2013,05,23,00,08,7.90
2013,05,23,00,09,7.90
2013,05,23,00,10,7.90
2013,05,23,00,11,7.90
2013,05,23,00,12,7.90
2013,05,23,00,13,7.90
2013,05,23,00,14,7.80
2013,05,23,00,15,7.80
2013,05,23,00,16,7.80
2013,05,23,00,17,7.70
2013,05,23,00,18,7.70
2013,05,23,00,19,7.70
2013,05,23,00,20,7.70
2013,05,23,00,21,7.70
2013,05,23,00,22,7.60
2013,05,23,00,23,7.60
2013,05,23,00,24,7.60
2013,05,23,00,25,7.50
2013,05,23,00,26,7.50
2013,05,23,00,27,7.50
2013,05,23,00,28,7.50
2013,05,23,00,29,7.40
2013,05,23,00,30,7.40
2013,05,23,00,31,7.40
2013,05,23,00,32,7.40
2013,05,23,00,33,7.40
2013,05,23,00,34,7.40
2013,05,23,00,35,7.40
2013,05,23,00,36,7.40
2013,05,23,00,37,7.40
2013,05,23,00,38,7.40
2013,05,23,00,39,7.40
2013,05,23,00,40,7.40
2013,05,23,00,41,7.30
2013,05,23,00,42,7.30
2013,05,23,00,43,7.30
2013,05,23,00,44,7.30
2013,05,23,00,45,7.30
2013,05,23,00,46,7.30
2013,05,23,00,47,7.30
2013,05,23,00,48,7.30
2013,05,23,00,49,7.30
2013,05,23,00,50,7.30
2013,05,23,00,51,7.30
2013,05,23,00,52,7.30
2013,05,23,00,53,7.30
2013,05,23,00,54,7.30
2013,05,23,00,55,7.30
2013,05,23,00,56,7.30
2013,05,23,00,57,7.30
2013,05,23,00,58,7.30
2013,05,23,00,59,7.30
2013,05,23,01,00,7.30
2013,05,23,01,01,7.30
2013,05,23,01,02,7.30
2013,05,23,01,03,7.30
2013,05,23,01,04,7.20
2013,05,23,01,05,7.20
2013,05,23,01,06,7.20
2013,05,23,01,07,7.20
2013,05,23,01,08,7.20
2013,05,23,01,09,7.20
2013,05,23,01,10,7.20
2013,05,23,01,11,7.20
2013,05,23,01,12,7.20
2013,05,23,01,13,7.20
2013,05,23,01,14,7.20
2013,05,23,01,15,7.20
2013,05,23,01,16,7.20
2013,05,23,01,17,7.20
2013,05,23,01,18,7.20
2013,05,23,01,19,7.20
2013,05,23,01,20,7.30
2013,05,23,01,21,7.30
2013,05,23,01,22,7.40
2013,05,23,01,23,7.50
2013,05,23,01,24,7.50
2013,05,23,01,25,7.60
2013,05,23,01,26,7.60
2013,05,23,01,27,7.60
2013,05,23,01,28,7.60
2013,05,23,01,29,7.60
2013,05,23,01,30,7.60
2013,05,23,01,31,7.60
2013,05,23,01,32,7.60
2013,05,23,01,33,7.60
2013,05,23,01,34,7.60
2013,05,23,01,35,7.60
2013,05,23,01,36,7.60
2013,05,23,01,37,7.60
2013,05,23,01,38,7.60
2013,05,23,01,39,7.60
2013,05,23,01,40,7.50
2013,05,23,01,41,7.50
2013,05,23,01,42,7.50
2013,05,23,01,43,7.50
2013,05,23,01,44,7.50
2013,05,23,01,45,7.50
2013,05,23,01,46,7.50
2013,05,23,01,47,7.50
2013,05,23,01,48,7.50
2013,05,23,01,49,7.50
2013,05,23,01,50,7.50
2013,05,23,01,51,7.50
2013,05,23,01,52,7.50
2013,05,23,01,53,7.50
2013,05,23,01,54,7.50
2013,05,23,01,55,7.40
2013,05,23,01,56,7.40
2013,05,23,01,57,7.40
2013,05,23,01,58,7.40
2013,05,23,01,59,7.40
2013,05,23,02,00,7.40
2013,05,23,02,01,7.40
2013,05,23,02,02,7.40
2013,05,23,02,03,7.40
2013,05,23,02,04,7.40
2013,05,23,02,05,7.40
2013,05,23,02,06,7.40
2013,05,23,02,07,7.40
2013,05,23,02,08,7.40
2013,05,23,02,09,7.40
2013,05,23,02,10,7.40
2013,05,23,02,11,7.40
2013,05,23,02,12,7.50
2013,05,23,02,13,7.40
2013,05,23,02,14,7.40
2013,05,23,02,15,7.50
2013,05,23,02,16,7.40
2013,05,23,02,17,7.40
2013,05,23,02,18,7.50
2013,05,23,02,19,7.50
2013,05,23,02,20,7.50
2013,05,23,02,21,7.50
2013,05,23,02,22,7.50
2013,05,23,02,23,7.50
2013,05,23,02,24,7.50
2013,05,23,02,25,7.50
2013,05,23,02,26,7.50
2013,05,23,02,27,7.50
2013,05,23,02,28,7.50
2013,05,23,02,29,7.50
2013,05,23,02,30,7.40
2013,05,23,02,31,7.40
2013,05,23,02,32,7.40
2013,05,23,02,33,7.40
2013,05,23,02,34,7.40
2013,05,23,02,35,7.40
2013,05,23,02,36,7.40
2013,05,23,02,37,7.40
2013,05,23,02,38,7.40
2013,05,23,02,39,7.40
2013,05,23,02,40,7.40
2013,05,23,02,41,7.40
2013,05,23,02,42,7.40
2013,05,23,02,43,7.40
2013,05,23,02,44,7.40
2013,05,23,02,45,7.30
2013,05,23,02,46,7.30
2013,05,23,02,47,7.30
2013,05,23,02,48,7.30
2013,05,23,02,49,7.30
2013,05,23,02,50,7.40
2013,05,23,02,51,7.30
2013,05,23,02,52,7.40
2013,05,23,02,53,7.40
2013,05,23,02,54,7.40
2013,05,23,02,55,7.40
2013,05,23,02,56,7.40
2013,05,23,02,57,7.40
2013,05,23,02,58,7.40
2013,05,23,02,59,7.40
2013,05,23,03,00,7.40
2013,05,23,03,01,7.40
2013,05,23,03,02,7.40
2013,05,23,03,03,7.40
2013,05,23,03,04,7.40
2013,05,23,03,05,7.40
2013,05,23,03,06,7.40
2013,05,23,03,07,7.30
2013,05,23,03,08,7.30
2013,05,23,03,09,7.30
2013,05,23,03,10,7.30
2013,05,23,03,11,7.30
2013,05,23,03,12,7.30
2013,05,23,03,13,7.30
2013,05,23,03,14,7.30
2013,05,23,03,15,7.30
2013,05,23,03,16,7.30
2013,05,23,03,17,7.30
2013,05,23,03,18,7.30
2013,05,23,03,19,7.30
2013,05,23,03,20,7.30
2013,05,23,03,21,7.30
2013,05,23,03,22,7.30
2013,05,23,03,23,7.30
2013,05,23,03,24,7.30
2013,05,23,03,25,7.30
2013,05,23,03,26,7.30
2013,05,23,03,27,7.30
2013,05,23,03,28,7.30
2013,05,23,03,29,7.40
2013,05,23,03,30,7.40
2013,05,23,03,31,7.40
2013,05,23,03,32,7.40
2013,05,23,03,33,7.40
2013,05,23,03,34,7.40
2013,05,23,03,35,7.40
2013,05,23,03,36,7.40
2013,05,23,03,37,7.40
2013,05,23,03,38,7.40
2013,05,23,03,39,7.40
2013,05,23,03,40,7.40
2013,05,23,03,41,7.40
2013,05,23,03,42,7.40
2013,05,23,03,43,7.40
2013,05,23,03,44,7.40
2013,05,23,03,45,7.40
2013,05,23,03,46,7.40
2013,05,23,03,47,7.40
2013,05,23,03,48,7.40
2013,05,23,03,49,7.40
2013,05,23,03,50,7.40
2013,05,23,03,51,7.40
2013,05,23,03,52,7.40
2013,05,23,03,53,7.40
2013,05,23,03,54,7.40
2013,05,23,03,55,7.40
2013,05,23,03,56,7.40
2013,05,23,03,57,7.40
2013,05,23,03,58,7.40
2013,05,23,03,59,7.40
2013,05,23,04,00,7.40
2013,05,23,04,01,7.40
2013,05,23,04,02,7.40
2013,05,23,04,03,7.40
2013,05,23,04,04,7.40
2013,05,23,04,05,7.40
2013,05,23,04,06,7.40
2013,05,23,04,07,7.40
2013,05,23,04,08,7.40
2013,05,23,04,09,7.40
2013,05,23,04,10,7.40
2013,05,23,04,11,7.40
2013,05,23,04,12,7.40
2013,05,23,04,13,7.40
2013,05,23,04,14,7.50
2013,05,23,04,15,7.50
2013,05,23,04,16,7.50
2013,05,23,04,17,7.50
2013,05,23,04,18,7.50
2013,05,23,04,19,7.50
2013,05,23,04,20,7.60
2013,05,23,04,21,7.50
2013,05,23,04,22,7.50
2013,05,23,04,23,7.50
2013,05,23,04,24,7.50
2013,05,23,04,25,7.50
2013,05,23,04,26,7.60
2013,05,23,04,27,7.60
2013,05,23,04,28,7.60
2013,05,23,04,29,7.60
2013,05,23,04,30,7.50
2013,05,23,04,31,7.50
2013,05,23,04,32,7.50
2013,05,23,04,33,7.50
2013,05,23,04,34,7.50
2013,05,23,04,35,7.50
2013,05,23,04,36,7.50
2013,05,23,04,37,7.50
2013,05,23,04,38,7.50
2013,05,23,04,39,7.50
2013,05,23,04,40,7.50
2013,05,23,04,41,7.50
2013,05,23,04,42,7.60
2013,05,23,04,43,7.60
2013,05,23,04,44,7.60
2013,05,23,04,45,7.60
2013,05,23,04,46,7.60
2013,05,23,04,47,7.60
2013,05,23,04,48,7.60
2013,05,23,04,49,7.60
2013,05,23,04,50,7.60
2013,05,23,04,51,7.60
2013,05,23,04,52,7.60
2013,05,23,04,53,7.60
2013,05,23,04,54,7.60
2013,05,23,04,55,7.60
2013,05,23,04,56,7.60
2013,05,23,04,57,7.60
2013,05,23,04,58,7.60
2013,05,23,04,59,7.60
2013,05,23,05,00,7.60
2013,05,23,05,01,7.60
2013,05,23,05,02,7.60
2013,05,23,05,03,7.60
2013,05,23,05,04,7.60
2013,05,23,05,05,7.60
2013,05,23,05,06,7.60
2013,05,23,05,07,7.60
2013,05,23,05,08,7.60
2013,05,23,05,09,7.60
2013,05,23,05,10,7.60
2013,05,23,05,11,7.60
2013,05,23,05,12,7.60
2013,05,23,05,13,7.60
2013,05,23,05,14,7.60
2013,05,23,05,15,7.60
2013,05,23,05,16,7.60
2013,05,23,05,17,7.60
2013,05,23,05,18,7.60
2013,05,23,05,19,7.60
2013,05,23,05,20,7.60
2013,05,23,05,21,7.60
2013,05,23,05,22,7.70
2013,05,23,05,23,7.70
2013,05,23,05,24,7.70
2013,05,23,05,25,7.70
2013,05,23,05,26,7.70
2013,05,23,05,27,7.70
2013,05,23,05,28,7.70
2013,05,23,05,29,7.70
2013,05,23,05,30,7.70
2013,05,23,05,31,7.70
2013,05,23,05,32,7.70
2013,05,23,05,33,7.70
2013,05,23,05,34,7.70
2013,05,23,05,35,7.70
2013,05,23,05,36,7.70
2013,05,23,05,37,7.70
2013,05,23,05,38,7.70
2013,05,23,05,39,7.70
2013,05,23,05,40,7.70
2013,05,23,05,41,7.70
2013,05,23,05,42,7.70
2013,05,23,05,43,7.70
2013,05,23,05,44,7.70
2013,05,23,05,45,7.70
2013,05,23,05,46,7.70
2013,05,23,05,47,7.70
2013,05,23,05,48,7.70
2013,05,23,05,49,7.70
2013,05,23,05,50,7.80
2013,05,23,05,51,7.80
2013,05,23,05,52,7.80
2013,05,23,05,53,7.80
2013,05,23,05,54,7.80
2013,05,23,05,55,7.80
2013,05,23,05,56,7.80
2013,05,23,05,57,7.80
2013,05,23,05,58,7.80
2013,05,23,05,59,7.80
2013,05,23,06,00,7.80
2013,05,23,06,01,7.80
2013,05,23,06,02,7.80
2013,05,23,06,03,7.80
2013,05,23,06,04,7.80
2013,05,23,06,05,7.80
2013,05,23,06,06,7.80
2013,05,23,06,07,7.80
2013,05,23,06,08,7.80
2013,05,23,06,09,7.90
2013,05,23,06,10,7.90
2013,05,23,06,11,7.90
2013,05,23,06,12,7.90
2013,05,23,06,13,8.00
2013,05,23,06,14,8.00
2013,05,23,06,15,8.00
2013,05,23,06,16,8.00
2013,05,23,06,17,8.00
2013,05,23,06,18,8.00
2013,05,23,06,19,8.10
2013,05,23,06,20,8.10
2013,05,23,06,21,8.10
2013,05,23,06,22,8.10
2013,05,23,06,23,8.10
2013,05,23,06,24,8.10
2013,05,23,06,25,8.10
2013,05,23,06,26,8.10
2013,05,23,06,27,8.10
2013,05,23,06,28,8.10
2013,05,23,06,29,8.10
2013,05,23,06,30,8.10
2013,05,23,06,31,8.20
2013,05,23,06,32,8.20
2013,05,23,06,33,8.20
2013,05,23,06,34,8.20
2013,05,23,06,35,8.20
2013,05,23,06,36,8.20
2013,05,23,06,37,8.30
2013,05,23,06,38,8.30
2013,05,23,06,39,8.30
2013,05,23,06,40,8.30
2013,05,23,06,41,8.40
2013,05,23,06,42,8.40
2013,05,23,06,43,8.40
2013,05,23,06,44,8.50
2013,05,23,06,45,8.50
2013,05,23,06,46,8.50
2013,05,23,06,47,8.60
2013,05,23,06,48,8.60
2013,05,23,06,49,8.60
2013,05,23,06,50,8.60
2013,05,23,06,51,8.60
2013,05,23,06,52,8.60
2013,05,23,06,53,8.60
2013,05,23,06,54,8.70
2013,05,23,06,55,8.70
2013,05,23,06,56,8.80
2013,05,23,06,57,8.90
2013,05,23,06,58,9.00
2013,05,23,06,59,9.00
2013,05,23,07,00,9.10
2013,05,23,07,01,9.20
2013,05,23,07,02,9.20
2013,05,23,07,03,9.20
2013,05,23,07,04,9.20
2013,05,23,07,05,9.20
2013,05,23,07,06,9.20
2013,05,23,07,07,9.20
2013,05,23,07,08,9.30
2013,05,23,07,09,9.30
2013,05,23,07,10,9.30
2013,05,23,07,11,9.30
2013,05,23,07,12,9.20
2013,05,23,07,13,9.20
2013,05,23,07,14,9.20
2013,05,23,07,15,9.20
2013,05,23,07,16,9.20
2013,05,23,07,17,9.20
2013,05,23,07,18,9.20
2013,05,23,07,19,9.20
2013,05,23,07,20,9.20
2013,05,23,07,21,9.20
2013,05,23,07,22,9.20
2013,05,23,07,23,9.30
2013,05,23,07,24,9.30
2013,05,23,07,25,9.30
2013,05,23,07,26,9.30
2013,05,23,07,27,9.30
2013,05,23,07,28,9.30
2013,05,23,07,29,9.30
2013,05,23,07,30,9.30
2013,05,23,07,31,9.30
2013,05,23,07,32,9.30
2013,05,23,07,33,9.30
2013,05,23,07,34,9.30
2013,05,23,07,35,9.30
2013,05,23,07,36,9.20
2013,05,23,07,37,9.30
2013,05,23,07,38,9.30
2013,05,23,07,39,9.20
2013,05,23,07,40,9.20
2013,05,23,07,41,9.20
2013,05,23,07,42,9.20
2013,05,23,07,43,9.20
2013,05,23,07,44,9.30
2013,05,23,07,45,9.30
2013,05,23,07,46,9.30
2013,05,23,07,47,9.30
2013,05,23,07,48,9.30
2013,05,23,07,49,9.30
2013,05,23,07,50,9.40
2013,05,23,07,51,9.40
2013,05,23,07,52,9.40
2013,05,23,07,53,9.40
2013,05,23,07,54,9.40
2013,05,23,07,55,9.40
2013,05,23,07,56,9.40
2013,05,23,07,57,9.40
2013,05,23,07,58,9.40
2013,05,23,07,59,9.40
2013,05,23,08,00,9.40
2013,05,23,08,01,9.40
2013,05,23,08,02,9.40
2013,05,23,08,03,9.40
2013,05,23,08,04,9.40
2013,05,23,08,05,9.40
2013,05,23,08,06,9.50
2013,05,23,08,07,9.50
2013,05,23,08,08,9.60
2013,05,23,08,09,9.60
2013,05,23,08,10,9.60
2013,05,23,08,11,9.60
2013,05,23,08,12,9.60
2013,05,23,08,13,9.60
2013,05,23,08,14,9.60
2013,05,23,08,15,9.60
2013,05,23,08,16,9.60
2013,05,23,08,17,9.60
2013,05,23,08,18,9.60
2013,05,23,08,19,9.60
2013,05,23,08,20,9.70
2013,05,23,08,21,9.60
2013,05,23,08,22,9.60
2013,05,23,08,23,9.60
2013,05,23,08,24,9.60
2013,05,23,08,25,9.60
2013,05,23,08,26,9.70
2013,05,23,08,27,9.80
2013,05,23,08,28,10.00
2013,05,23,08,29,10.20
2013,05,23,08,30,10.40
2013,05,23,08,31,10.60
2013,05,23,08,32,10.70
2013,05,23,08,33,10.70
2013,05,23,08,34,10.70
2013,05,23,08,35,10.60
2013,05,23,08,36,10.50
2013,05,23,08,37,10.40
2013,05,23,08,38,10.30
2013,05,23,08,39,10.30
2013,05,23,08,40,10.30
2013,05,23,08,41,10.20
2013,05,23,08,42,10.20
2013,05,23,08,43,10.20
2013,05,23,08,44,10.20
2013,05,23,08,45,10.20
2013,05,23,08,46,10.30
2013,05,23,08,47,10.30
2013,05,23,08,48,10.30
2013,05,23,08,49,10.40
2013,05,23,08,50,10.40
2013,05,23,08,51,10.40
2013,05,23,08,52,10.40
2013,05,23,08,53,10.40
2013,05,23,08,54,10.40
2013,05,23,08,55,10.50
2013,05,23,08,56,10.60
2013,05,23,08,57,10.60
2013,05,23,08,58,10.60
2013,05,23,08,59,10.70
2013,05,23,09,00,10.70
2013,05,23,09,01,10.70
2013,05,23,09,02,10.70
2013,05,23,09,03,10.80
2013,05,23,09,04,10.80
2013,05,23,09,05,10.90
2013,05,23,09,06,11.00
2013,05,23,09,07,11.00
2013,05,23,09,08,11.00
2013,05,23,09,09,11.10
2013,05,23,09,10,11.20
2013,05,23,09,11,11.20
2013,05,23,09,12,11.30
2013,05,23,09,13,11.30
2013,05,23,09,14,11.20
2013,05,23,09,15,11.30
2013,05,23,09,16,11.30
2013,05,23,09,17,11.40
2013,05,23,09,18,11.50
2013,05,23,09,19,11.60
2013,05,23,09,20,11.50
2013,05,23,09,21,11.50
2013,05,23,09,22,11.50
2013,05,23,09,23,11.60
2013,05,23,09,24,11.70
2013,05,23,09,25,11.70
2013,05,23,09,26,11.80
2013,05,23,09,27,11.90
2013,05,23,09,28,12.00
2013,05,23,09,29,12.00
2013,05,23,09,30,12.00
2013,05,23,09,31,12.00
2013,05,23,09,32,11.90
2013,05,23,09,33,11.80
2013,05,23,09,34,11.80
2013,05,23,09,35,11.90
2013,05,23,09,36,11.90
2013,05,23,09,37,11.80
2013,05,23,09,38,11.80
2013,05,23,09,39,11.90
2013,05,23,09,40,11.90
2013,05,23,09,41,11.90
2013,05,23,09,42,11.90
2013,05,23,09,43,11.90
2013,05,23,09,44,12.00
2013,05,23,09,45,12.00
2013,05,23,09,46,12.00
2013,05,23,09,47,12.00
2013,05,23,09,48,12.00
2013,05,23,09,49,12.00
2013,05,23,09,50,12.00
2013,05,23,09,51,11.90
2013,05,23,09,52,12.00
2013,05,23,09,53,12.00
2013,05,23,09,54,12.00
2013,05,23,09,55,12.00
2013,05,23,09,56,11.90
2013,05,23,09,57,11.90
2013,05,23,09,58,11.80
2013,05,23,09,59,11.80
2013,05,23,10,00,11.70
2013,05,23,10,01,11.70
2013,05,23,10,02,11.70
2013,05,23,10,03,11.70
2013,05,23,10,04,11.70
2013,05,23,10,05,11.80
2013,05,23,10,06,11.80
2013,05,23,10,07,11.90
2013,05,23,10,08,11.90
2013,05,23,10,09,12.00
2013,05,23,10,10,12.00
2013,05,23,10,11,12.10
2013,05,23,10,12,12.10
2013,05,23,10,13,12.10
2013,05,23,10,14,12.00
2013,05,23,10,15,11.90
2013,05,23,10,16,11.80
2013,05,23,10,17,11.80
2013,05,23,10,18,11.70
2013,05,23,10,19,11.70
2013,05,23,10,20,11.70
2013,05,23,10,21,11.80
2013,05,23,10,22,11.90
2013,05,23,10,23,12.00
2013,05,23,10,24,12.10
2013,05,23,10,25,12.20
2013,05,23,10,26,12.20
2013,05,23,10,27,12.20
2013,05,23,10,28,12.20
2013,05,23,10,29,12.20
2013,05,23,10,30,12.30
2013,05,23,10,31,12.40
2013,05,23,10,32,12.50
2013,05,23,10,33,12.50
2013,05,23,10,34,12.50
2013,05,23,10,35,12.40
2013,05,23,10,36,12.30
2013,05,23,10,37,12.30
2013,05,23,10,38,12.30
2013,05,23,10,39,12.20
2013,05,23,10,40,12.20
2013,05,23,10,41,12.20
2013,05,23,10,42,12.20
2013,05,23,10,43,12.30
2013,05,23,10,44,12.20
2013,05,23,10,45,12.20
2013,05,23,10,46,12.10
2013,05,23,10,47,12.20
2013,05,23,10,48,12.20
2013,05,23,10,49,12.00
2013,05,23,10,50,12.00
2013,05,23,10,51,12.10
2013,05,23,10,52,12.10
2013,05,23,10,53,12.00
2013,05,23,10,54,11.90
2013,05,23,10,55,11.90
2013,05,23,10,56,12.00
2013,05,23,10,57,12.00
2013,05,23,10,58,12.10
2013,05,23,10,59,12.00
2013,05,23,11,00,11.90
2013,05,23,11,01,12.00
2013,05,23,11,02,12.00
2013,05,23,11,03,12.10
2013,05,23,11,04,12.20
2013,05,23,11,05,12.30
2013,05,23,11,06,12.20
2013,05,23,11,07,12.20
2013,05,23,11,08,12.20
2013,05,23,11,09,12.30
2013,05,23,11,10,12.30
2013,05,23,11,11,12.40
2013,05,23,11,12,12.40
2013,05,23,11,13,12.50
2013,05,23,11,14,12.50
2013,05,23,11,15,12.60
2013,05,23,11,16,12.60
2013,05,23,11,17,12.50
2013,05,23,11,18,12.50
2013,05,23,11,19,12.60
2013,05,23,11,20,12.60
2013,05,23,11,21,12.80
2013,05,23,11,22,12.90
2013,05,23,11,23,13.00
2013,05,23,11,24,13.10
2013,05,23,11,25,13.20
2013,05,23,11,26,13.30
2013,05,23,11,27,13.30
2013,05,23,11,28,13.30
2013,05,23,11,29,13.30
2013,05,23,11,30,13.20
2013,05,23,11,31,13.10
2013,05,23,11,32,13.00
2013,05,23,11,33,12.90
2013,05,23,11,34,12.70
2013,05,23,11,35,12.60
2013,05,23,11,36,12.50
2013,05,23,11,37,12.40
2013,05,23,11,38,12.30
2013,05,23,11,39,12.10
2013,05,23,11,40,12.00
2013,05,23,11,41,11.90
2013,05,23,11,42,11.90
2013,05,23,11,43,11.80
2013,05,23,11,44,11.80
2013,05,23,11,45,11.80
2013,05,23,11,46,11.90
2013,05,23,11,47,11.90
2013,05,23,11,48,11.90
2013,05,23,11,49,12.00
2013,05,23,11,50,12.00
2013,05,23,11,51,12.00
2013,05,23,11,52,12.10
2013,05,23,11,53,12.20
2013,05,23,11,54,12.30
2013,05,23,11,55,12.40
2013,05,23,11,56,12.50
2013,05,23,11,57,12.50
2013,05,23,11,58,12.60
2013,05,23,11,59,12.50
2013,05,23,12,00,12.40
2013,05,23,12,01,12.40
2013,05,23,12,02,12.30
2013,05,23,12,03,12.10
2013,05,23,12,04,11.90
2013,05,23,12,05,11.90
2013,05,23,12,06,11.90
2013,05,23,12,07,12.10
2013,05,23,12,08,12.20
2013,05,23,12,09,12.20
2013,05,23,12,10,12.20
2013,05,23,12,11,12.20
2013,05,23,12,12,12.20
2013,05,23,12,13,12.20
2013,05,23,12,14,12.30
2013,05,23,12,15,12.40
2013,05,23,12,16,12.50
2013,05,23,12,17,12.60
2013,05,23,12,18,12.70
2013,05,23,12,19,12.80
2013,05,23,12,20,12.80
2013,05,23,12,21,12.90
2013,05,23,12,22,12.90
2013,05,23,12,23,12.90
2013,05,23,12,24,12.90
2013,05,23,12,25,13.00
2013,05,23,12,26,13.00
2013,05,23,12,27,13.10
2013,05,23,12,28,13.10
2013,05,23,12,29,13.00
2013,05,23,12,30,12.90
2013,05,23,12,31,12.90
2013,05,23,12,32,12.90
2013,05,23,12,33,13.00
2013,05,23,12,34,12.90
2013,05,23,12,35,12.90
2013,05,23,12,36,12.80
2013,05,23,12,37,12.70
2013,05,23,12,38,12.80
2013,05,23,12,39,12.90
2013,05,23,12,40,12.90
2013,05,23,12,41,12.80
2013,05,23,12,42,12.80
2013,05,23,12,43,12.90
2013,05,23,12,44,12.90
2013,05,23,12,45,12.90
2013,05,23,12,46,12.90
2013,05,23,12,47,12.90
2013,05,23,12,48,12.90
2013,05,23,12,49,13.00
2013,05,23,12,50,13.00
2013,05,23,12,51,13.00
2013,05,23,12,52,13.10
2013,05,23,12,53,13.20
2013,05,23,12,54,13.20
2013,05,23,12,55,13.00
2013,05,23,12,56,12.90
2013,05,23,12,57,12.90
2013,05,23,12,58,12.90
2013,05,23,12,59,12.80
2013,05,23,13,00,12.80
2013,05,23,13,01,12.70
2013,05,23,13,02,12.70
2013,05,23,13,03,12.80
2013,05,23,13,04,12.90
2013,05,23,13,05,13.10
2013,05,23,13,06,13.30
2013,05,23,13,07,13.40
2013,05,23,13,08,13.50
2013,05,23,13,09,13.70
2013,05,23,13,10,13.70
2013,05,23,13,11,13.60
2013,05,23,13,12,13.30
2013,05,23,13,13,13.20
2013,05,23,13,14,13.10
2013,05,23,13,15,13.10
2013,05,23,13,16,13.10
2013,05,23,13,17,13.10
2013,05,23,13,18,13.10
2013,05,23,13,19,13.10
2013,05,23,13,20,13.10
2013,05,23,13,21,13.00
2013,05,23,13,22,13.00
2013,05,23,13,23,12.90
2013,05,23,13,24,12.90
2013,05,23,13,25,13.00
2013,05,23,13,26,13.10
2013,05,23,13,27,13.10
2013,05,23,13,28,13.20
2013,05,23,13,29,13.20
2013,05,23,13,30,13.20
2013,05,23,13,31,13.20
2013,05,23,13,32,13.10
2013,05,23,13,33,13.10
2013,05,23,13,34,13.00
2013,05,23,13,35,12.90
2013,05,23,13,36,12.80
2013,05,23,13,37,12.90
2013,05,23,13,38,13.00
2013,05,23,13,39,13.00
2013,05,23,13,40,13.10
2013,05,23,13,41,13.10
2013,05,23,13,42,13.10
2013,05,23,13,43,13.00
2013,05,23,13,44,13.10
2013,05,23,13,45,13.10
2013,05,23,13,46,13.20
2013,05,23,13,47,13.20
2013,05,23,13,48,13.20
2013,05,23,13,49,13.20
2013,05,23,13,50,13.30
2013,05,23,13,51,13.40
2013,05,23,13,52,13.40
2013,05,23,13,53,13.40
2013,05,23,13,54,13.40
2013,05,23,13,55,13.40
2013,05,23,13,56,13.40
2013,05,23,13,57,13.40
2013,05,23,13,58,13.40
2013,05,23,13,59,13.30
2013,05,23,14,00,13.40
2013,05,23,14,01,13.40
2013,05,23,14,02,13.50
2013,05,23,14,03,13.60
2013,05,23,14,04,13.70
2013,05,23,14,05,13.80
2013,05,23,14,06,13.80
2013,05,23,14,07,13.90
2013,05,23,14,08,14.00
2013,05,23,14,09,14.10
2013,05,23,14,10,14.10
2013,05,23,14,11,14.00
2013,05,23,14,12,13.90
2013,05,23,14,13,13.90
2013,05,23,14,14,13.90
2013,05,23,14,15,13.90
2013,05,23,14,16,14.00
2013,05,23,14,17,14.10
2013,05,23,14,18,14.20
2013,05,23,14,19,14.10
2013,05,23,14,20,14.00
2013,05,23,14,21,13.80
2013,05,23,14,22,13.80
2013,05,23,14,23,13.60
2013,05,23,14,24,13.60
2013,05,23,14,25,13.60
2013,05,23,14,26,13.60
2013,05,23,14,27,13.60
2013,05,23,14,28,13.60
2013,05,23,14,29,13.70
2013,05,23,14,30,13.80
2013,05,23,14,31,13.80
2013,05,23,14,32,13.80
2013,05,23,14,33,13.70
2013,05,23,14,34,13.70
2013,05,23,14,35,13.70
2013,05,23,14,36,13.70
2013,05,23,14,37,13.60
2013,05,23,14,38,13.60
2013,05,23,14,39,13.50
2013,05,23,14,40,13.50
2013,05,23,14,41,13.50
2013,05,23,14,42,13.40
2013,05,23,14,43,13.50
2013,05,23,14,44,13.50
2013,05,23,14,45,13.60
2013,05,23,14,46,13.70
2013,05,23,14,47,13.90
2013,05,23,14,48,13.90
2013,05,23,14,49,13.80
2013,05,23,14,50,13.80
2013,05,23,14,51,13.70
2013,05,23,14,52,13.70
2013,05,23,14,53,13.70
2013,05,23,14,54,13.70
2013,05,23,14,55,13.80
2013,05,23,14,56,13.90
2013,05,23,14,57,14.00
2013,05,23,14,58,14.10
2013,05,23,14,59,14.10
2013,05,23,15,00,14.10
2013,05,23,15,01,14.00
2013,05,23,15,02,13.90
2013,05,23,15,03,13.80
2013,05,23,15,04,13.90
2013,05,23,15,05,13.90
2013,05,23,15,06,14.00
2013,05,23,15,07,13.90
2013,05,23,15,08,13.80
2013,05,23,15,09,13.70
2013,05,23,15,10,13.60
2013,05,23,15,11,13.50
2013,05,23,15,12,13.50
2013,05,23,15,13,13.40
2013,05,23,15,14,13.40
2013,05,23,15,15,13.40
2013,05,23,15,16,13.40
2013,05,23,15,17,13.40
2013,05,23,15,18,13.40
2013,05,23,15,19,13.40
2013,05,23,15,20,13.40
2013,05,23,15,21,13.40
2013,05,23,15,22,13.40
2013,05,23,15,23,13.40
2013,05,23,15,24,13.40
2013,05,23,15,25,13.40
2013,05,23,15,26,13.30
2013,05,23,15,27,13.30
2013,05,23,15,28,13.30
2013,05,23,15,29,13.30
2013,05,23,15,30,13.30
2013,05,23,15,31,13.30
2013,05,23,15,32,13.30
2013,05,23,15,33,13.30
2013,05,23,15,34,13.40
2013,05,23,15,35,13.50
2013,05,23,15,36,13.60
2013,05,23,15,37,13.70
2013,05,23,15,38,13.80
2013,05,23,15,39,13.90
2013,05,23,15,40,14.00
2013,05,23,15,41,14.00
2013,05,23,15,42,14.00
2013,05,23,15,43,14.10
2013,05,23,15,44,14.10
2013,05,23,15,45,14.10
2013,05,23,15,46,14.20
2013,05,23,15,47,14.20
2013,05,23,15,48,14.30
2013,05,23,15,49,14.30
2013,05,23,15,50,14.40
2013,05,23,15,51,14.50
2013,05,23,15,52,14.60
2013,05,23,15,53,14.70
2013,05,23,15,54,14.60
2013,05,23,15,55,14.50
2013,05,23,15,56,14.50
2013,05,23,15,57,14.50
2013,05,23,15,58,14.50
2013,05,23,15,59,14.40
2013,05,23,16,00,14.40
2013,05,23,16,01,14.30
2013,05,23,16,02,14.30
2013,05,23,16,03,14.30
2013,05,23,16,04,14.30
2013,05,23,16,05,14.30
2013,05,23,16,06,14.40
2013,05,23,16,07,14.40
2013,05,23,16,08,14.50
2013,05,23,16,09,14.60
2013,05,23,16,10,14.70
2013,05,23,16,11,14.80
2013,05,23,16,12,14.80
2013,05,23,16,13,14.90
2013,05,23,16,14,15.00
2013,05,23,16,15,15.00
2013,05,23,16,16,15.00
2013,05,23,16,17,15.00
2013,05,23,16,18,14.80
2013,05,23,16,19,14.70
2013,05,23,16,20,14.70
2013,05,23,16,21,14.60
2013,05,23,16,22,14.60
2013,05,23,16,23,14.60
2013,05,23,16,24,14.50
2013,05,23,16,25,14.60
2013,05,23,16,26,14.60
2013,05,23,16,27,14.60
2013,05,23,16,28,14.60
2013,05,23,16,29,14.60
2013,05,23,16,30,14.70
2013,05,23,16,31,14.70
2013,05,23,16,32,14.70
2013,05,23,16,33,14.60
2013,05,23,16,34,14.60
2013,05,23,16,35,14.50
2013,05,23,16,36,14.50
2013,05,23,16,37,14.40
2013,05,23,16,38,14.50
2013,05,23,16,39,14.50
2013,05,23,16,40,14.50
2013,05,23,16,41,14.50
2013,05,23,16,42,14.50
2013,05,23,16,43,14.60
2013,05,23,16,44,14.70
2013,05,23,16,45,14.80
2013,05,23,16,46,14.90
2013,05,23,16,47,15.00
2013,05,23,16,48,15.00
2013,05,23,16,49,15.10
2013,05,23,16,50,15.20
2013,05,23,16,51,15.20
2013,05,23,16,52,15.00
2013,05,23,16,53,15.00
2013,05,23,16,54,15.00
2013,05,23,16,55,15.00
2013,05,23,16,56,14.90
2013,05,23,16,57,14.80
2013,05,23,16,58,14.80
2013,05,23,16,59,14.70
2013,05,23,17,00,14.60
2013,05,23,17,01,14.50
2013,05,23,17,02,14.40
2013,05,23,17,03,14.30
2013,05,23,17,04,14.20
2013,05,23,17,05,14.20
2013,05,23,17,06,14.10
2013,05,23,17,07,14.10
2013,05,23,17,08,14.10
2013,05,23,17,09,14.10
2013,05,23,17,10,14.20
2013,05,23,17,11,14.30
2013,05,23,17,12,14.30
2013,05,23,17,13,14.40
2013,05,23,17,14,14.40
2013,05,23,17,15,14.50
2013,05,23,17,16,14.60
2013,05,23,17,17,14.60
2013,05,23,17,18,14.50
2013,05,23,17,19,14.40
2013,05,23,17,20,14.40
2013,05,23,17,21,14.50
2013,05,23,17,22,14.50
2013,05,23,17,23,14.60
2013,05,23,17,24,14.50
2013,05,23,17,25,14.60
2013,05,23,17,26,14.60
2013,05,23,17,27,14.70
2013,05,23,17,28,14.80
2013,05,23,17,29,14.80
2013,05,23,17,30,14.80
2013,05,23,17,31,14.70
2013,05,23,17,32,14.70
2013,05,23,17,33,14.70
2013,05,23,17,34,14.60
2013,05,23,17,35,14.60
2013,05,23,17,36,14.70
2013,05,23,17,37,14.80
2013,05,23,17,38,14.80
2013,05,23,17,39,14.90
2013,05,23,17,40,15.00
2013,05,23,17,41,15.00